sat.trackr.live / text

‹ back to catalog

STARLINK-35784

NORAD 67093 · 2025-298U

PAYLOAD ACTIVE UNKNOWN

§ Identity

Operator
Country
US
Launch date
2025-12-14
Launch site
AFWTR
Launch vehicle
Mass (kg)
RCS (m²)

Purposes: comms

External: N2YO · Heavens-Above · Gunter

§ Orbital elements

Epoch: 2026-05-25T03:43:15.742848Z

Period
96.11 min
Inclination
70.0008°
Eccentricity
0.0003818
Mean motion
14.98335106 rev/d
Perigee alt
569.4 km
Apogee alt
574.7 km
Semi-major
6,950.2 km
B*
1.9577e-4
RAAN
181.5626°
Arg perigee
267.1821°
Mean anomaly
92.8901°
Rev number
2,467

§ Raw data

STARLINK-357841 67093U 25298U   26145.15504332  .00002244  00000+0  19577-3 0  99952 67093  70.0008 181.5626 0003818 267.1821  92.8901 14.98335106 24676

JSON: /api/v1/satellites/67093 · /tle

For live sub-satellite position, see the globe view (requires WebGL).

§ Visibility from observer

Set your observer location to see the next 7 days of passes ≥ 10°. The values pass through the URL so the page stays shareable.

No JS? Fill the form by hand. The geolocation button needs JavaScript.